Stations météo

réclame
Mon MeteoGroup
Elpersbüttel, Allemagne (10130): Température de l'air & dewpoint: 10.12.2017 16:00:00 - 16.12.2017 16:00:00 (CET)Elpersbüttel, Allemagne (10130): Température de l'air 5cm & Température de l'air -5cm: 10.12.2017 16:00:00 - 16.12.2017 16:00:00 (CET)Elpersbüttel, Allemagne (10130): Température de l'air -20cm & Température de l'air -100cm: 10.12.2017 16:00:00 - 16.12.2017 16:00:00 (CET)Elpersbüttel, Allemagne (10130): Vitesse du vent & gusts: 10.12.2017 16:00:00 - 16.12.2017 16:00:00 (CET)Elpersbüttel, Allemagne (10130): Direction du vent: 10.12.2017 16:00:00 - 16.12.2017 16:00:00 (CET)Elpersbüttel, Allemagne (10130): reduced air pressure: 10.12.2017 16:00:00 - 16.12.2017 16:00:00 (CET)Elpersbüttel, Allemagne (10130): visibility: 10.12.2017 16:00:00 - 16.12.2017 16:00:00 (CET)Elpersbüttel, Allemagne (10130): Ensoleillement: 10.12.2017 16:00:00 - 16.12.2017 16:00:00 (CET)Elpersbüttel, Allemagne (10130): Quantités de précipitations: 10.12.2017 16:00:00 - 16.12.2017 16:00:00 (CET)
Date & Time tt [°C] td [°C] tt 5cm [°C] tt -5cm [°C] tt -20cm [°C] tt -100cm [°C] ff [km/h] ff [knt] fx [km/h] fx [knt] dd ppp [hPa] vv [km] sd [min] rr [mm]
16.12.2017 16:00:00 - - - - - - - - - - - - - - -
16.12.2017 15:00:00 3,6 1,4 3,1 2,7 3,4 6,5 14 8 27 15 W 1006,0 39 34 0,0
16.12.2017 14:00:00 3,4 1,2 2,8 3,1 3,3 6,5 14 7 41 22 W 1005,6 70 10 0,0
16.12.2017 13:00:00 4,8 2,6 5,7 3,7 3,1 6,5 24 13 31 17 W 1005,3 10 60 0,0
16.12.2017 12:00:00 3,7 1,7 4,6 2,6 3,0 6,5 18 10 23 13 W 1004,8 23 49 0,0
16.12.2017 11:00:00 3,1 0,9 1,9 2,3 2,9 6,5 20 11 31 17 W 1004,6 68 13 0,2
16.12.2017 10:00:00 2,9 1,6 2,2 1,3 3,0 6,5 15 8 32 17 W 1004,3 13 1 0,0
16.12.2017 09:00:00 1,2 0,5 -0,2 1,2 3,0 6,5 13 7 14 8 WSW 1003,3 36 0 0,0
16.12.2017 08:00:00 2,0 0,9 0,5 1,6 3,0 6,5 6 4 29 16 NNW 1002,7 62 0 0,8
16.12.2017 07:00:00 2,8 2,0 1,7 1,8 3,1 6,5 11 6 23 12 W 1002,1 8 0 0,0
16.12.2017 06:00:00 1,8 1,0 0,9 1,4 3,1 6,5 11 6 13 7 SW 1001,8 43 0 0,1
16.12.2017 05:00:00 2,8 2,1 1,3 1,6 3,2 6,5 9 5 27 15 WNW 1001,4 36 0 0,9
16.12.2017 04:00:00 1,6 0,7 -0,4 1,8 3,3 6,5 10 5 23 12 SW 1001,0 24 0 0,0
16.12.2017 03:00:00 3,0 2,4 2,4 1,9 3,3 6,5 21 12 27 14 SW 1000,7 3,4 0 0,0
16.12.2017 02:00:00 2,6 2,1 1,2 2,0 3,3 6,5 15 8 20 11 SW 1000,3 4,7 0 0,3
16.12.2017 01:00:00 3,2 2,2 2,8 2,7 3,3 6,5 19 10 32 17 WNW 1000,2 14 0 0,0
16.12.2017 00:00:00 3,4 2,7 2,9 2,5 3,3 6,5 22 12 33 18 SW 999,8 3,4 0 0,1
15.12.2017 23:00:00 3,2 2,4 2,7 2,4 3,3 6,5 19 10 29 16 SW 999,6 3,8 0 0,3
15.12.2017 22:00:00 3,0 1,8 2,4 2,3 3,3 6,5 18 10 25 13 SW 999,3 3,5 0 0,1
15.12.2017 21:00:00 2,9 1,6 2,4 2,1 3,3 6,5 17 9 21 11 SW 998,9 6 0 0,0
15.12.2017 20:00:00 2,8 1,5 1,8 2,1 3,3 6,5 16 9 23 12 SSW 998,4 7 0 0,0
15.12.2017 19:00:00 2,9 1,6 2,5 2,4 3,3 6,5 17 9 25 14 SW 998,1 7 0 0,0
15.12.2017 18:00:00 2,7 1,6 2,3 2,4 3,3 6,5 17 9 23 13 SW 997,8 4,8 0 0,0
15.12.2017 17:00:00 2,6 1,5 2,2 2,4 3,3 6,5 16 8 24 13 WSW 997,7 4,0 0 0,0
15.12.2017 16:00:00 2,5 1,4 2,2 2,5 3,3 6,5 18 10 28 15 WSW 997,0 4,5 0 0,0
15.12.2017 15:00:00 2,5 1,5 2,3 2,6 3,3 6,5 20 11 24 13 SW 996,3 4,2 0 0,0
15.12.2017 14:00:00 2,7 1,8 2,5 2,7 3,3 6,5 19 10 25 13 WSW 995,6 3,0 0 0,0
15.12.2017 13:00:00 2,6 1,7 2,6 2,7 3,2 6,5 18 10 24 13 SW 995,0 3,2 0 0,0
15.12.2017 12:00:00 2,8 1,7 2,8 2,7 3,2 6,5 18 10 28 15 WSW 994,7 3,6 0 0,0
15.12.2017 11:00:00 2,8 1,6 2,7 2,5 3,1 6,5 16 9 27 15 WSW 994,2 4,3 0 0,0
15.12.2017 10:00:00 2,9 1,5 2,7 2,3 3,1 6,5 16 9 21 12 SW 993,2 4,6 0 0,0
15.12.2017 09:00:00 2,5 1,2 2,1 2,1 3,1 6,5 13 7 23 12 SW 992,6 6 0 0,0
15.12.2017 08:00:00 2,6 1,2 2,2 2,2 3,1 6,5 13 7 22 12 SSW 992,0 6 0 0,0
15.12.2017 07:00:00 2,6 1,2 2,2 2,2 3,1 6,5 14 7 23 12 SW 991,2 6 0 0,0
15.12.2017 06:00:00 2,8 1,5 2,3 2,2 3,1 6,5 12 7 21 12 SSW 990,4 5 0 0,0
15.12.2017 05:00:00 2,8 1,5 2,4 2,2 3,0 6,5 15 8 20 11 SSW 990,0 5 0 0,0
15.12.2017 04:00:00 2,8 1,6 2,4 2,2 3,0 6,5 14 7 26 14 SW 989,6 4,6 0 0,0
15.12.2017 03:00:00 2,9 1,4 2,5 2,1 3,0 6,6 19 10 27 15 SW 989,4 7 0 0,0
15.12.2017 02:00:00 3,0 1,5 2,5 2,1 3,0 6,6 19 10 31 17 SW 988,8 6 0 0,0
15.12.2017 01:00:00 3,1 1,5 2,5 1,9 3,0 6,6 23 12 34 19 SW 988,4 6 0 0,0
15.12.2017 00:00:00 3,1 1,6 2,2 1,7 3,0 6,6 25 13 35 19 SW 988,2 6 0 0,0
14.12.2017 23:00:00 3,1 1,9 2,4 1,9 2,9 6,6 25 13 34 18 SSW 988,0 6 0 0,0
14.12.2017 22:00:00 3,0 1,8 2,4 1,8 3,0 6,6 28 15 42 23 SW 988,1 8 0 0,0
14.12.2017 21:00:00 2,5 1,3 1,3 1,5 3,0 6,6 31 17 41 22 SW 988,0 8 0 0,0
14.12.2017 20:00:00 2,7 1,4 1,5 1,8 3,0 6,6 29 16 37 20 SSW 987,8 8 0 0,0
14.12.2017 19:00:00 2,9 1,6 2,0 1,7 3,1 6,6 26 14 36 19 SW 987,8 12 0 0,0
14.12.2017 18:00:00 2,6 1,2 1,1 1,7 3,1 6,6 25 14 35 19 SSW 987,6 22 0 0,0
14.12.2017 17:00:00 3,3 1,9 2,4 2,2 3,1 6,6 29 15 51 27 SW 987,4 10 0 0,5
14.12.2017 16:00:00 2,9 1,3 2,0 2,1 3,1 6,6 37 20 50 27 SW 987,1 20 0 0,5
14.12.2017 15:00:00 2,6 1,5 2,0 2,0 3,1 6,6 39 21 51 28 SW 986,9 12 0 0,9
14.12.2017 14:00:00 2,0 1,2 1,4 2,4 3,1 6,6 38 20 56 30 WSW 986,6 16 0 0,9
14.12.2017 13:00:00 2,5 1,7 2,1 2,5 3,1 6,6 36 20 53 28 SW 986,4 6 0 0,5
14.12.2017 12:00:00 2,9 1,8 2,6 2,7 3,0 6,6 37 20 58 31 SW 986,3 17 0 0,1
14.12.2017 11:00:00 3,1 1,6 2,9 2,6 3,0 6,6 46 25 59 32 WSW 985,8 19 0 0,0
14.12.2017 10:00:00 3,1 1,5 2,6 2,2 2,9 6,6 41 22 61 33 WSW 984,8 28 0 0,0
14.12.2017 09:00:00 3,6 2,1 2,9 2,2 2,9 6,7 45 24 63 34 SW 983,9 17 0 0,0
14.12.2017 08:00:00 3,4 2,0 2,6 2,1 2,9 6,7 39 21 52 28 SW 983,5 17 0 0,0
14.12.2017 07:00:00 3,4 2,0 2,2 2,1 2,9 6,7 39 21 54 29 SW 982,5 23 0 0,0
14.12.2017 06:00:00 3,9 2,2 3,0 2,4 2,9 6,7 34 18 64 35 WSW 981,9 21 0 0,0
14.12.2017 05:00:00 4,8 2,6 3,2 2,2 2,8 6,7 31 17 61 33 WSW 981,0 20 0 0,4
14.12.2017 04:00:00 4,2 2,7 3,3 2,4 2,7 6,7 44 24 64 35 W 980,3 12 0 0,6
14.12.2017 03:00:00 4,2 2,5 3,2 2,0 2,7 6,7 34 18 45 24 W 979,7 29 0 1,1
14.12.2017 02:00:00 1,8 1,0 1,3 1,8 2,6 6,7 24 13 45 24 S 979,6 4,6 0 0,9
14.12.2017 01:00:00 2,8 1,9 2,2 2,0 2,5 6,7 23 12 39 21 SSE 980,7 3,7 0 1,3
14.12.2017 00:00:00 3,2 2,3 2,6 2,0 2,4 6,7 24 13 39 21 S 982,4 2,6 0 0,7
13.12.2017 23:00:00 3,4 2,5 2,9 1,8 2,3 6,8 21 11 38 20 S 984,2 3,6 0 0,0
13.12.2017 22:00:00 3,0 2,4 2,5 1,5 2,3 6,8 29 15 38 20 S 986,1 2,9 0 0,0
13.12.2017 21:00:00 2,5 2,3 2,0 1,1 2,2 6,8 26 14 35 19 S 987,6 1,1 0 0,0
13.12.2017 20:00:00 1,7 1,3 1,0 0,7 2,2 6,8 24 13 36 19 S 989,2 2,9 0 0,0
13.12.2017 19:00:00 1,2 0,7 0,6 0,5 2,2 6,8 24 13 37 20 S 990,2 6 0 0,0
13.12.2017 18:00:00 0,8 0,3 0,3 0,4 2,3 6,8 27 15 38 20 S 991,1 8 0 1,0
13.12.2017 17:00:00 0,7 0,2 0,0 0,5 2,3 6,8 27 14 40 22 S 992,2 1,9 0 1,5
13.12.2017 16:00:00 1,1 0,4 0,4 0,8 2,3 6,8 25 13 43 23 S 993,4 3,1 0 1,2
13.12.2017 15:00:00 1,2 0,4 0,6 1,0 2,3 6,8 30 16 44 24 S 994,4 2,8 0 0,8
13.12.2017 14:00:00 1,2 0,4 0,8 1,1 2,3 6,8 31 17 47 25 S 995,8 6 0 0,7
13.12.2017 13:00:00 1,8 0,5 1,2 1,3 2,2 6,8 34 19 53 29 S 997,4 6 0 0,1
13.12.2017 12:00:00 2,1 0,0 1,3 1,1 2,2 6,9 37 20 54 29 S 998,9 19 0 0,0
13.12.2017 11:00:00 1,3 0,1 0,7 0,7 2,2 6,9 35 19 51 28 S 1000,7 8 0 0,1
13.12.2017 10:00:00 1,4 -0,6 0,7 0,5 2,1 6,9 36 19 50 27 S 1002,2 7 0 0,0
13.12.2017 09:00:00 1,4 -0,6 0,7 0,4 2,1 6,9 37 20 55 30 S 1003,3 7 0 0,0
13.12.2017 08:00:00 1,1 -0,5 0,1 0,3 2,2 6,9 35 19 48 26 S 1004,1 4,7 0 0,0
13.12.2017 07:00:00 1,1 -0,5 0,2 0,3 2,2 6,9 32 17 41 22 S 1005,1 4,5 0 0,0
13.12.2017 06:00:00 0,7 -0,6 -0,2 0,3 2,2 6,9 27 14 37 20 S 1006,3 4,2 0 0,0
13.12.2017 05:00:00 0,8 -0,5 -0,1 0,4 2,2 6,9 27 15 41 22 S 1006,9 4,3 0 0,0
13.12.2017 04:00:00 1,2 -0,2 0,7 0,5 2,2 6,9 32 17 45 25 SSW 1008,1 4,5 0 0,0
13.12.2017 03:00:00 1,1 -0,1 0,4 0,5 2,2 6,9 34 18 50 27 SSW 1008,3 3,9 0 0,0
13.12.2017 02:00:00 1,2 -0,1 0,6 0,4 2,2 6,9 40 21 55 30 SW 1008,8 4,6 0 0,0
13.12.2017 01:00:00 1,1 0,1 0,3 0,3 2,2 6,9 37 20 46 25 SSW 1008,9 4,4 0 0,0
13.12.2017 00:00:00 1,1 0,0 -0,3 0,3 2,2 7,0 30 16 40 22 SSW 1008,5 4,0 0 0,0
12.12.2017 23:00:00 1,5 0,3 0,0 0,4 2,3 7,0 28 15 36 19 SSW 1008,3 8 0 0,0
12.12.2017 22:00:00 1,9 0,5 0,5 0,4 2,3 7,0 27 14 36 20 SW 1008,3 13 0 0,0
12.12.2017 21:00:00 2,0 0,3 0,4 0,5 2,3 7,0 28 15 36 19 SW 1008,0 16 0 0,0
12.12.2017 20:00:00 2,6 0,8 1,0 0,6 2,3 7,0 23 13 34 18 SW 1007,7 35 0 0,0
12.12.2017 19:00:00 1,9 1,0 0,8 0,4 2,3 7,0 22 12 32 17 SW 1007,1 16 0 0,0
12.12.2017 18:00:00 1,5 -0,4 -0,8 0,5 2,4 7,0 14 8 22 12 WSW 1006,2 35 0 0,0
12.12.2017 17:00:00 1,3 0,1 -0,5 0,7 2,4 7,0 13 7 18 10 WSW 1005,3 18 0 0,0
12.12.2017 16:00:00 1,9 -0,2 0,2 1,0 2,4 7,0 15 8 20 11 W 1004,0 29 0 0,0
12.12.2017 15:00:00 1,9 0,2 0,6 1,2 2,4 7,1 15 8 19 10 W 1002,5 21 0 0,0
12.12.2017 14:00:00 2,2 -0,6 0,9 1,3 2,3 7,1 11 6 23 12 NW 1001,3 22 0 0,0
12.12.2017 13:00:00 1,9 -0,2 0,9 1,1 2,3 7,1 12 7 30 16 NW 1000,1 16 0 0,0
12.12.2017 12:00:00 1,2 0,0 0,7 0,9 2,3 7,1 19 11 31 17 NNW 998,8 10 0 0,1
12.12.2017 11:00:00 1,5 -0,1 0,7 0,8 2,3 7,1 19 10 29 16 NNW 997,3 18 0 0,0
12.12.2017 10:00:00 1,5 0,0 0,8 0,7 2,3 7,1 21 11 29 16 NW 995,6 16 0 0,0
12.12.2017 09:00:00 1,5 0,2 0,6 0,7 2,3 7,1 17 9 25 13 NW 993,7 15 0 0,0
12.12.2017 08:00:00 1,4 0,0 0,5 0,6 2,3 7,1 18 10 29 15 NNW 992,0 18 0 0,0
12.12.2017 07:00:00 1,0 0,0 0,5 0,6 2,3 7,2 20 11 29 15 NNW 990,4 13 0 0,0
12.12.2017 06:00:00 0,7 0,0 0,2 0,6 2,3 7,2 19 11 26 14 NNW 988,7 7 0 0,0
12.12.2017 05:00:00 0,5 -0,1 0,0 0,5 2,3 7,2 21 12 30 16 NNW 987,3 7 0 0,0
12.12.2017 04:00:00 0,2 -0,2 0,0 0,5 2,3 7,2 23 12 31 17 N 986,2 1,6 0 0,5
12.12.2017 03:00:00 0,3 -0,1 0,0 0,5 2,3 7,2 21 11 30 16 N 985,4 0,9 0 0,6
12.12.2017 02:00:00 0,5 -0,1 0,0 0,5 2,4 7,2 19 11 27 14 N 984,6 3,1 0 0,1
12.12.2017 01:00:00 0,5 0,0 0,0 0,5 2,4 7,2 19 11 31 17 NNE 984,2 2,9 0 0,2
12.12.2017 00:00:00 0,4 0,0 0,0 0,5 2,4 7,2 19 10 29 16 NNE 984,2 1,7 0 0,2
11.12.2017 23:00:00 0,4 0,1 0,0 0,5 2,4 7,2 20 11 31 17 NNE 984,1 1,2 0 0,5
11.12.2017 22:00:00 0,4 0,0 0,0 0,5 2,4 7,2 18 10 27 15 NE 984,0 1,8 0 0,9
11.12.2017 21:00:00 0,3 -0,1 0,0 0,5 2,4 7,3 20 11 36 20 NE 983,8 0,8 0 0,5
11.12.2017 20:00:00 0,4 -0,1 0,0 0,5 2,4 7,3 27 15 39 21 NE 983,9 1,1 0 0,3
11.12.2017 19:00:00 0,4 0,0 0,0 0,5 2,5 7,3 23 13 32 17 NNE 984,5 2,6 0 0,9
11.12.2017 18:00:00 0,4 0,0 0,0 0,5 2,5 7,3 18 10 24 13 NE 984,5 0,8 0 0,8
11.12.2017 17:00:00 0,4 0,0 0,0 0,6 2,5 7,3 18 10 27 15 NE 984,0 0,9 0 0,6
11.12.2017 16:00:00 0,8 -0,1 0,3 0,8 2,5 7,3 13 7 22 12 NE 985,1 5 0 0,0
11.12.2017 15:00:00 0,7 -0,4 0,3 0,8 2,5 7,3 15 8 21 11 NE 985,0 9 0 0,0
11.12.2017 14:00:00 0,6 -0,9 0,1 0,8 2,5 7,3 11 6 16 8 NE 986,2 12 0 0,0
11.12.2017 13:00:00 0,4 -1,1 0,0 0,7 2,5 7,3 10 6 18 10 NE 986,7 11 0 0,0
11.12.2017 12:00:00 0,3 -1,3 0,0 0,6 2,5 7,4 11 6 16 9 NNE 986,9 14 0 0,0
11.12.2017 11:00:00 -0,1 -2,0 -0,5 0,5 2,5 7,4 3 2 9 5 ENE 987,9 15 0 0,0
11.12.2017 10:00:00 -0,7 -2,5 -1,2 0,4 2,5 7,4 7 4 16 9 ENE 986,2 15 0 0,0
11.12.2017 09:00:00 -1,0 -3,0 -2,6 0,4 2,6 7,4 12 7 19 10 NE 985,1 16 0 0,0
11.12.2017 08:00:00 -0,3 -2,4 -1,8 0,5 2,6 7,4 15 8 28 15 NNE 985,1 21 0 0,0
11.12.2017 07:00:00 0,2 -1,3 -0,5 0,7 2,6 7,4 14 8 18 10 N 986,2 13 0 0,0
11.12.2017 06:00:00 0,4 -1,3 -0,2 0,6 2,6 7,4 14 8 24 13 N 985,4 14 0 0,0
11.12.2017 05:00:00 -0,1 -1,5 -0,6 0,6 2,6 7,4 18 10 22 12 N 982,9 12 0 0,0
11.12.2017 04:00:00 -0,4 -1,8 -0,9 0,6 2,7 7,4 19 10 28 15 N 982,2 11 0 0,0
11.12.2017 03:00:00 -0,5 -2,0 -1,1 0,6 2,7 7,4 20 11 30 16 NNE 980,3 11 0 0,0
11.12.2017 02:00:00 -0,7 -2,0 -1,2 0,6 2,7 7,5 18 10 33 18 NE 979,0 8 0 0,0
11.12.2017 01:00:00 -0,8 -2,0 -1,4 0,5 2,7 7,5 20 11 33 18 NE 978,0 6 0 0,0
11.12.2017 00:00:00 -0,7 -2,0 -1,1 0,5 2,8 7,5 20 11 32 17 ENE 977,9 3,3 0 0,1
10.12.2017 23:00:00 -0,5 -2,4 -1,0 0,6 2,8 7,5 24 13 35 19 E 977,7 3,5 0 0,0
10.12.2017 22:00:00 -0,4 -2,0 -0,9 0,6 2,9 7,5 23 12 38 21 E 978,0 8 0 0,0
10.12.2017 21:00:00 -0,5 -1,9 -1,2 0,6 2,9 7,5 22 12 35 19 E 978,1 7 0 0,0
10.12.2017 20:00:00 -0,2 -1,8 -0,8 0,8 3,0 7,5 12 6 31 17 ESE 978,9 6 0 0,0
10.12.2017 19:00:00 0,1 -1,3 -0,5 0,9 3,0 7,5 16 9 34 19 E 979,7 11 0 0,0
10.12.2017 18:00:00 0,1 -0,7 -0,3 0,9 3,1 7,5 7 4 23 12 SE 980,8 3,0 0 0,2
10.12.2017 17:00:00 0,3 -0,4 -0,1 0,9 3,2 7,5 10 6 24 13 SE 981,9 0,9 0 0,3
10.12.2017 16:00:00 0,7 -0,5 0,2 1,4 3,2 7,6 11 6 25 14 SE 982,8 6 0 0,2

tt = Température de l'air
td = dewpoint
tt 5cm = Température de l'air 5cm
tt -5cm = Température de l'air -5cm
tt -20cm = Température de l'air -20cm
tt -100cm = Température de l'air -100cm
ff = Vitesse du vent
fx = gusts
dd = Direction du vent
ppp = reduced air pressure
vv = visibility
sd = Ensoleillement
rr = Quantités de précipitations

stations d'obs. à proximité